Location: Newark
(48.2308°N, 120.8549°W)
Time: 04:25:30
(UTC+00:00)

S-56A Canister/Altair - All Passes

Search period start: 06 June 2020 00:00
Search period end: 16 June 2020 00:00
Orbit: 633 x 2499 km, 38.9° (Epoch: 05 June)

Date Brightness Start Highest point End Pass type
(mag) Time Alt. Az. Time Alt. Az. Time Alt. Az.
06 Jun - 09:58:29 10° S 10:00:39 13° SE 10:03:02 10° ESE visible
06 Jun - 11:58:25 10° SW 12:03:06 33° SSE 12:09:28 10° ESE daylight
06 Jun - 14:00:42 10° WSW 14:06:26 38° S 14:14:43 10° ESE daylight
06 Jun - 16:04:09 10° WSW 16:10:17 25° SSW 16:18:26 10° SSE daylight
07 Jun - 09:28:06 10° SE 09:28:13 10° SE 09:28:20 10° SE visible
07 Jun - 11:26:14 10° SW 11:30:34 29° SSE 11:36:13 10° ESE daylight
07 Jun - 13:28:22 10° WSW 13:33:44 37° S 13:41:22 10° ESE daylight
07 Jun - 15:31:37 10° WSW 15:37:26 25° SSW 15:45:15 10° SSE daylight
08 Jun - 10:54:03 10° SW 10:58:03 26° SSE 11:03:02 10° ESE visible
08 Jun - 12:56:03 10° WSW 13:01:05 36° S 13:08:04 10° ESE daylight
08 Jun - 14:59:09 10° WSW 15:04:38 26° SSW 15:12:03 10° SSE daylight
08 Jun - 17:06:29 10° SW 17:08:21 11° SW 17:10:21 10° SSW daylight
09 Jun - 10:21:54 10° SSW 10:25:34 23° SSE 10:29:55 10° ESE visible
09 Jun - 12:23:45 10° WSW 12:28:28 34° S 12:34:51 10° ESE daylight
09 Jun - 14:26:43 10° WSW 14:31:53 26° SSW 14:38:53 10° SE daylight
09 Jun - 16:33:02 10° SW 16:35:32 11° SSW 16:38:17 10° SSW daylight
10 Jun - 09:49:47 10° SSW 09:53:06 20° SSE 09:56:51 10° ESE visible
10 Jun - 11:51:28 10° WSW 11:55:53 33° S 12:01:42 10° ESE daylight
10 Jun - 13:54:19 10° WSW 13:59:11 26° SSW 14:05:43 10° SE daylight
10 Jun - 15:59:56 10° SW 16:02:45 12° SSW 16:05:53 10° S daylight
11 Jun - 09:17:41 10° SSW 09:20:38 17° SSE 09:23:50 10° ESE visible
11 Jun - 11:19:10 10° WSW 11:23:21 31° S 11:28:37 10° ESE visible
11 Jun - 13:21:56 10° WSW 13:26:32 26° SSW 13:32:37 10° SE daylight
11 Jun - 15:27:03 10° SW 15:29:59 13° SSW 15:33:21 10° S daylight
12 Jun - 08:45:37 10° SSW 08:48:11 15° SSE 08:50:50 10° ESE visible
12 Jun - 10:46:52 10° SW 10:50:50 29° S 10:55:39 10° ESE visible
12 Jun - 12:49:34 10° WSW 12:53:55 26° SSW 12:59:34 10° SE daylight
12 Jun - 14:54:18 10° SW 14:57:16 13° SSW 15:00:42 10° S daylight
13 Jun - 08:13:35 10° S 08:15:42 13° SSE 08:17:50 10° SE visible
13 Jun - 10:14:32 10° SW 10:18:21 27° S 10:22:44 10° ESE visible
13 Jun - 12:17:12 10° WSW 12:21:20 26° S 12:26:34 10° SE daylight
13 Jun - 14:21:37 10° SW 14:24:35 14° SSW 14:28:02 10° S daylight
14 Jun - 07:41:40 10° S 07:43:13 12° SSE 07:44:45 10° SE visible
14 Jun - 09:42:12 10° SW 09:45:52 25° S 09:49:54 10° ESE visible
14 Jun - 11:44:50 10° WSW 11:48:47 26° S 11:53:38 10° SE daylight
14 Jun - 13:49:01 10° SW 13:51:56 14° SSW 13:55:21 10° S daylight
15 Jun - 07:10:06 10° SSE 07:10:44 10° SSE 07:11:19 10° SE night (unlit)
15 Jun - 09:09:49 10° SW 09:13:24 24° S 09:17:09 10° ESE visible
15 Jun - 11:12:27 10° WSW 11:16:15 26° S 11:20:47 10° SE visible
15 Jun - 13:16:27 10° SW 13:19:19 14° SSW 13:22:40 10° S daylight
